Oelwein, IA

4:21 PM CST on January 17, 2018 (GMT -0600)
Oelwein Municipal

Weather History for KOLZ - February, 2014

Change the Weather History Date:

Sunday, February 2, 2014

  Actual Average Record
Temperature  
Mean Temperature -5 °F -  
Max Temperature 6 °F 25 °F 57 °F (2006)
Min Temperature -16 °F 7 °F -23 °F (1965)
Degree Days  
Heating Degree Days 70    
Moisture  
Dew Point -9 °F    
Average Humidity 76    
Maximum Humidity 92    
Minimum Humidity 66    
Precipitation  
Precipitation 0.00 in - - ()
Sea Level Pressure  
Sea Level Pressure 30.28 in    
Wind  
Wind Speed 9 mph (WNW)    
Max Wind Speed 16 mph    
Max Gust Speed 13 mph    
Visibility 10 miles    
Events      
Averages and records for this station are not official NWS values.
T = Trace of Precipitation, MM = Missing Value Source: NWS Daily Summary

Daily Weather History Graph

Daily Weather History Graph

Search for Another Location

Airport or City:

Trip Planner

Search our weather history database for the weather conditions in past years. The results will help you decide how hot, cold, wet, or windy it might be!

Date:

Astronomy

Feb. 02, 2014 Rise Set
Actual Time 7:21 AM CST 5:22 PM CST
Civil Twilight 6:51 AM CST 5:52 PM CST
Nautical Twilight 6:17 AM CST 6:26 PM CST
Astronomical Twilight 5:44 AM CST 6:59 PM CST
Moon 8:42 AM CST (2/2) 9:13 PM CST (2/2)
Length of Visible Light 11h 01m
Length of Day
10h 01m
Waxing Crescent, 11% of the Moon is Illuminated
Feb 2
Waxing Crescent
Feb 6
First Quarter
Feb 14
Full
Feb 22
Last Quarter
Mar 1
New

Hourly Weather History & Observations

Time (CST) Temp. Windchill Dew Point Humidity Pressure Visibility Wind Dir Wind Speed Gust Speed Precip Events Conditions
12:15 AM 1.4 °F -18.2 °F -4.0 °F 78% 30.18 in 10.0 mi NW 16.1 mph - N/A   Partly Cloudy
12:35 AM 1.4 °F -17.6 °F -5.8 °F 72% 30.19 in 10.0 mi NW 15.0 mph - N/A   Clear
12:55 AM -0.4 °F -19.9 °F -5.8 °F 78% 30.19 in 10.0 mi NW 15.0 mph - N/A   Clear
1:15 AM -0.4 °F -19.9 °F -5.8 °F 78% 30.20 in 10.0 mi NW 15.0 mph - N/A   Clear
1:35 AM -2.2 °F -18.9 °F -7.6 °F 78% 30.20 in 10.0 mi NW 10.4 mph - N/A   Clear
1:55 AM -2.2 °F -18.9 °F -9.4 °F 71% 30.21 in 10.0 mi NW 10.4 mph - N/A   Clear
2:15 AM -4.0 °F -21.2 °F -9.4 °F 78% 30.21 in 10.0 mi NW 10.4 mph - N/A   Clear
2:35 AM -4.0 °F -21.2 °F -9.4 °F 78% 30.21 in 10.0 mi NW 10.4 mph - N/A   Clear
2:55 AM -7.6 °F -24.6 °F -13.0 °F 77% 30.21 in 10.0 mi NW 9.2 mph - N/A   Clear
3:15 AM -7.6 °F -26.6 °F -13.0 °F 77% 30.21 in 10.0 mi NW 11.5 mph - N/A   Clear
3:35 AM -7.6 °F -24.6 °F -13.0 °F 77% 30.22 in 10.0 mi NW 9.2 mph - N/A   Clear
3:55 AM -7.6 °F -26.6 °F -13.0 °F 77% 30.22 in 10.0 mi NW 11.5 mph - N/A   Clear
4:15 AM -7.6 °F -26.6 °F -13.0 °F 77% 30.23 in 10.0 mi NW 11.5 mph - N/A   Clear
4:35 AM -9.4 °F -27.9 °F -14.8 °F 77% 30.23 in 10.0 mi WNW 10.4 mph - N/A   Clear
4:55 AM -9.4 °F -27.9 °F -14.8 °F 77% 30.24 in 10.0 mi WNW 10.4 mph - N/A   Clear
5:15 AM -11.2 °F -29.0 °F -16.6 °F 77% 30.24 in 10.0 mi WNW 9.2 mph - N/A   Clear
5:35 AM -11.2 °F -29.0 °F -16.6 °F 77% 30.25 in 10.0 mi WNW 9.2 mph - N/A   Clear
5:55 AM -11.2 °F -29.0 °F -16.6 °F 77% 30.25 in 10.0 mi NW 9.2 mph - N/A   Clear
6:15 AM -11.2 °F -26.4 °F -16.6 °F 77% 30.25 in 10.0 mi NW 6.9 mph - N/A   Clear
6:35 AM -13.0 °F -28.6 °F -18.4 °F 77% 30.26 in 10.0 mi NW 6.9 mph - N/A   Clear
6:55 AM -11.2 °F -24.8 °F -16.6 °F 77% 30.26 in 10.0 mi NW 5.8 mph - N/A   Clear
7:15 AM -11.2 °F -29.0 °F -16.6 °F 77% 30.27 in 10.0 mi NW 9.2 mph - N/A   Clear
7:35 AM -14.8 °F -34.6 °F -20.2 °F 77% 30.27 in 10.0 mi NW 10.4 mph - N/A   Clear
7:55 AM -14.8 °F -35.6 °F -20.2 °F 77% 30.29 in 10.0 mi NW 11.5 mph - N/A   Clear
8:15 AM -16.6 °F -36.8 °F -22.0 °F 76% 30.30 in 10.0 mi NW 10.4 mph - N/A   Clear
8:35 AM -13.0 °F -27.0 °F -18.4 °F 77% 30.30 in 10.0 mi NW 5.8 mph - N/A   Clear
8:55 AM -11.2 °F - -18.4 °F 70% 30.31 in 10.0 mi Calm Calm - N/A   Clear
9:15 AM -9.4 °F - -14.8 °F 77% 30.32 in 10.0 mi Calm Calm - N/A   Clear
9:35 AM -5.8 °F - -11.2 °F 77% 30.34 in 10.0 mi Calm Calm - N/A   Clear
9:55 AM -7.6 °F -16.5 °F -13.0 °F 77% 30.34 in 9.0 mi NW 3.5 mph - N/A   Clear
10:15 AM -5.8 °F -19.9 °F -11.2 °F 77% 30.33 in 10.0 mi NW 6.9 mph - N/A   Clear
10:35 AM -2.2 °F -15.6 °F -7.6 °F 78% 30.32 in 10.0 mi NNW 6.9 mph - N/A   Clear
10:55 AM -0.4 °F -13.4 °F -7.6 °F 72% 30.31 in - NNW 6.9 mph - N/A   Clear
11:15 AM -0.4 °F -14.7 °F -5.8 °F 78% 30.32 in 10.0 mi NNW 8.1 mph - N/A   Clear
11:35 AM 1.4 °F - -5.8 °F 72% 30.32 in 10.0 mi Calm Calm - N/A   Clear
11:55 AM 3.2 °F - -5.8 °F 66% 30.31 in 10.0 mi Calm Calm - N/A   Clear
12:15 PM 3.2 °F -11.3 °F -4.0 °F 72% 30.30 in 10.0 mi NW 9.2 mph - N/A   Clear
12:35 PM 5.0 °F -10.8 °F -4.0 °F 66% 30.29 in 10.0 mi NW 11.5 mph - N/A   Clear
12:55 PM 5.0 °F -8.1 °F -4.0 °F 66% 30.29 in 10.0 mi NNW 8.1 mph - N/A   Clear
1:15 PM 5.0 °F -5.6 °F -4.0 °F 66% 30.30 in 10.0 mi NNW 5.8 mph 12.7 mph N/A   Unknown
1:35 PM 6.8 °F -5.9 °F -2.2 °F 67% 30.29 in 10.0 mi NNW 8.1 mph - N/A   Clear
1:55 PM 6.8 °F -6.9 °F -2.2 °F 67% 30.29 in 10.0 mi NW 9.2 mph - N/A   Clear
2:15 PM 6.8 °F -5.9 °F -2.2 °F 67% 30.29 in 10.0 mi NNW 8.1 mph - N/A   Clear
2:35 PM 6.8 °F -6.9 °F -2.2 °F 67% 30.30 in 10.0 mi NW 9.2 mph - N/A   Clear
2:55 PM 6.8 °F -2.0 °F -2.2 °F 67% 30.31 in 10.0 mi WNW 4.6 mph - N/A   Clear
3:15 PM 6.8 °F -2.0 °F -2.2 °F 67% 30.31 in 10.0 mi WSW 4.6 mph - N/A   Clear
3:35 PM 6.8 °F -2.0 °F -2.2 °F 67% 30.31 in 10.0 mi WSW 4.6 mph - N/A   Clear
3:55 PM 5.0 °F -4.1 °F -2.2 °F 72% 30.31 in 10.0 mi West 4.6 mph - N/A   Clear
4:15 PM 5.0 °F -6.9 °F -2.2 °F 72% 30.31 in 10.0 mi West 6.9 mph - N/A   Clear
4:35 PM 5.0 °F -6.9 °F -4.0 °F 66% 30.31 in 10.0 mi West 6.9 mph - N/A   Clear
4:55 PM 5.0 °F -4.1 °F -4.0 °F 66% 30.30 in 10.0 mi West 4.6 mph - N/A   Clear
5:15 PM 1.4 °F -8.3 °F -5.8 °F 72% 30.31 in 10.0 mi SSW 4.6 mph - N/A   Clear
5:35 PM -0.4 °F -10.4 °F -5.8 °F 78% 30.31 in 10.0 mi South 4.6 mph - N/A   Clear
5:55 PM 1.4 °F -8.3 °F -4.0 °F 78% 30.30 in 10.0 mi SSW 4.6 mph - N/A   Clear
6:15 PM 1.4 °F - -4.0 °F 78% 30.29 in 10.0 mi Calm Calm - N/A   Clear
6:35 PM -0.4 °F -8.3 °F -4.0 °F 85% 30.29 in 10.0 mi SSE 3.5 mph - N/A   Clear
6:55 PM -0.4 °F -10.4 °F -4.0 °F 85% 30.29 in 10.0 mi South 4.6 mph - N/A   Clear
7:15 PM -2.2 °F -12.5 °F -5.8 °F 85% 30.29 in 10.0 mi South 4.6 mph - N/A   Clear
7:35 PM -2.2 °F -12.5 °F -4.0 °F 92% 30.28 in 10.0 mi South 4.6 mph - N/A   Clear
7:55 PM -2.2 °F -14.2 °F -5.8 °F 85% 30.27 in 10.0 mi South 5.8 mph - N/A   Clear
8:15 PM -4.0 °F -17.8 °F -5.8 °F 92% 30.28 in 10.0 mi South 6.9 mph - N/A   Clear
8:35 PM -4.0 °F -17.8 °F -7.6 °F 85% 30.27 in 10.0 mi South 6.9 mph - N/A   Clear
8:55 PM -5.8 °F -18.4 °F -9.4 °F 84% 30.28 in 10.0 mi South 5.8 mph - N/A   Clear
9:15 PM -5.8 °F -18.4 °F -9.4 °F 84% 30.29 in 10.0 mi South 5.8 mph - N/A   Clear
9:35 PM -5.8 °F -18.4 °F -9.4 °F 84% 30.29 in 10.0 mi South 5.8 mph - N/A   Clear
9:55 PM -7.6 °F -20.6 °F -11.2 °F 84% 30.29 in 10.0 mi SSE 5.8 mph - N/A   Clear
10:15 PM -4.0 °F -12.4 °F -7.6 °F 85% 30.29 in 10.0 mi South 3.5 mph - N/A   Clear
10:35 PM -5.8 °F -16.7 °F -9.4 °F 84% 30.29 in 10.0 mi South 4.6 mph - N/A   Clear
10:55 PM -4.0 °F -12.4 °F -7.6 °F 85% 30.29 in 10.0 mi SSE 3.5 mph - N/A   Clear
11:15 PM -5.8 °F -18.4 °F -11.2 °F 77% 30.30 in 9.0 mi SSE 5.8 mph - N/A   Clear
11:35 PM -5.8 °F -18.4 °F -11.2 °F 77% 30.30 in 8.0 mi SSE 5.8 mph - N/A   Clear
11:55 PM -7.6 °F -20.6 °F -13.0 °F 77% 30.29 in 6.0 mi SSE 5.8 mph - N/A   Haze